Etusivu
METAR-TAF:

METAR-TAF

Lentoasemat :

Florø, Norja

Leveyspiiri: 61-35N, Pituuspiiri: 005-02E, korkeus merenpinnasta: 0 m

Tämänhetkinen sää

Tämä raportti tehtiin 24 minuuttia sitten, kello 04.20 UTC
Tuuli 8 kn etelästä, vaihdellen etelän ja lounaan välillä
Lämpötila 15°C
Kosteus 77%
Ilmanpaine 1009 hPa
Näkyvyys 10 km tai enemmän

METAR: ENFL 220420Z AUTO 19008KT 170V230 9999NDV BKN018/// OVC023/// 15/11 Q1009

Aika: 06:44 (04:44 UTC)


TAF: puuttuu

Säähavainnot ja -ennusteet yli 4000 lentoasemalta (METAR- ja TAF-raportit).

Käytössä olevat sääasemat on merkitty karttaan keltaisilla ja punaisilla pisteillä.

Aseta hiiri pisteen päälle nähdäksesi sääaseman nimen.

Klikkaa sitten nähdäksesi säähavainnot ja -ennusteet.

Kartan vaihtaminen: klikkaa mustalla rastilla varustettuja vihreitä pisteitä, niin voit zoomata sisään; viivalla varustettua vihreää pistettä, niin voit zoomata ulos tai vihreitä nuolia, niin pääset viereisille kartoille.


METAR-TAF: